Location: Horowhenua
(40.7500°S, 175.3333°E)
Time: 01:09:06
(UTC+00:00)

BREEZE-M DEB (TANK) - Pass Details

Date: 28 January 2023
Orbit: 297 x 15232 km, 49.3° (Epoch: 19 March)

Event Time Altitude Azimuth Distance (km) Brightness Sun altitude
Exits shadow 14:18:38 82° 263° (W) 765 3.3 -26.1°
Maximum altitude 14:18:48 85° 209° (SSW) 780 3.4 -26.0°
Drops below altitude 10° 14:28:55 10° 120° (ESE) 5,017 8.5 -25.1°
Sets 14:36:32 0° 119° (ESE) 8,042 9.7 -24.3°
